Location: Unspecified
(34.4950°S, 58.5160°W)
Time: 00:19:46
(UTC+00:00)

ATLAS 3B R/B - Pass Details

Date: 19 April 2026
Orbit: 937 x 1257 km, 63.8° (Epoch: 16 May)

Event Time Altitude Azimuth Distance (km) Brightness Sun altitude
Exits shadow 07:46:34 33° 18° (NNE) 1,602 3.6 -32.3°
Maximum altitude 07:48:53 47° 66° (ENE) 1,291 3.3 -31.8°
Drops below altitude 10° 07:54:50 10° 137° (SE) 2,696 5.4 -30.6°
Sets 07:57:26 0° 142° (SE) 3,631 6.1 -30.1°
